Location: Be?i?
(36.9044°N, 30.1006°E)
Time: 12:06:22
(UTC+00:00)

Cosmos 2341 Rocket - Pass Details

Date: 05 August 2024
Orbit: 967 x 1004 km, 82.9° (Epoch: 08 September)

Event Time Altitude Azimuth Distance (km) Brightness Sun altitude
Rises 17:21:29 0° 186° (S) 3,695 6.8 -4.4°
Reaches altitude 10° 17:23:59 10° 187° (S) 2,754 6.2 -4.9°
Maximum altitude 17:30:20 85° 277° (W) 1,010 4.2 -6.0°
Drops below altitude 10° 17:36:46 10° 5° (N) 2,784 6.7 -7.1°
Sets 17:39:18 0° 7° (N) 3,738 7.3 -7.6°
